RH
29 27 26 29 33 31 28 29 36 40 38 35 35 38 39 38 41 43 44 48 50 49 53 54 51 49 46 45 45 44 41 39 42 47 47 44 43 45 45 42 40 40 40 40 40 41 42 39 37 35 32 31 29 27 28 29 31 30 29 30 30 29 28 28 30 33 33 32 31 33 35 35 36 38 37 37 37 37 36 38 41 44 45 45 47
30 28 27 28 32 32 27 26 33 39 39 36 35 40 40 38 43 45 46 49 48 47 51 51 48 47 44 44 43 42 41 39 39 43 47 48 46 46 45 41 41 42 42 42 42 40 37 33 31 29 26 24 23 23 23 25 28 28 24 25 28 26 24 26 28 27 27 26 26 27 26 26 27 28 28 28 29 29 29 31 33 36 38 39 41
31 30 28 27 30 31 28 26 29 35 40 38 36 40 40 40 45 46 46 49 47 46 49 48 46 45 43 43 42 41 41 41 39 39 43 47 48 49 47 42 42 44 43 42 41 36 30 28 27 26 24 22 21 20 20 22 26 24 20 22 26 23 21 26 29 27 26 25 25 25 24 24 25 24 24 25 25 25 26 28 30 31 30 30 30
31 31 29 26 27 28 27 26 27 32 38 38 36 37 39 42 46 45 45 48 47 47 48 47 45 43 43 43 42 42 43 44 42 40 40 43 45 48 48 43 40 41 41 39 35 29 24 24 26 26 24 23 21 20 19 20 21 19 17 19 20 19 23 29 30 29 27 27 26 25 24 24 24 24 24 26 26 26 27 27 28 27 27 27 27
31 31 29 25 25 26 25 25 26 28 33 35 35 36 38 43 47 45 46 49 49 48 47 45 43 42 43 44 43 43 45 46 46 43 40 42 44 45 46 44 41 39 37 35 30 24 21 22 25 25 25 23 21 21 19 18 18 17 16 17 17 20 27 31 30 29 29 28 27 26 25 25 25 25 26 27 27 28 27 27 26 24 23 25 25
30 30 29 26 24 24 24 25 25 27 30 33 35 35 37 43 47 47 47 49 50 50 47 44 43 41 42 43 44 43 44 44 45 45 44 45 45 46 47 45 42 41 38 34 29 24 20 20 22 24 23 22 21 20 20 19 18 18 17 17 17 20 26 30 30 29 29 28 27 27 27 27 26 28 29 29 29 28 27 26 24 22 23 25 26
29 28 28 27 25 24 24 24 25 27 29 31 34 37 39 43 47 47 48 49 50 50 46 43 42 41 40 42 43 43 43 42 43 46 48 49 49 51 53 51 47 45 43 38 32 28 23 20 21 22 22 22 21 20 20 19 19 19 18 17 17 18 22 27 29 29 29 29 29 29 29 28 29 30 30 29 28 28 27 25 23 22 22 23 25
28 27 28 29 28 25 23 24 25 27 29 32 35 39 42 44 46 46 47 49 50 49 46 44 42 40 39 40 40 40 40 40 42 47 51 52 53 55 59 61 58 54 50 45 39 36 31 26 22 21 21 21 20 20 19 19 18 19 18 19 20 19 19 22 24 24 24 26 29 31 30 30 31 30 30 28 26 25 24 22 20 20 19 18 19
28 28 30 31 31 29 26 25 26 28 30 34 37 40 42 44 46 46 46 48 50 48 45 43 42 40 40 40 39 38 38 38 41 47 53 57 59 60 64 69 67 60 55 50 46 43 40 33 26 23 21 21 20 20 21 21 21 21 22 25 25 23 22 22 21 19 18 20 27 32 32 33 33 30 30 30 24 20 19 18 18 18 17 15 14
30 31 32 33 34 33 31 29 30 31 32 36 39 42 43 44 45 46 46 48 49 47 45 44 42 41 41 41 40 39 38 38 40 45 51 59 65 68 71 73 70 64 59 54 49 47 45 40 31 23 20 19 18 19 22 25 28 27 27 29 29 27 28 27 22 19 18 19 25 31 33 34 32 30 31 28 21 16 15 15 16 15 14 12 11
32 32 33 35 35 35 34 33 33 34 35 36 40 43 45 46 46 46 46 47 47 46 46 44 41 41 43 43 41 40 39 39 41 45 49 55 63 69 73 74 71 66 63 58 52 49 47 44 35 24 18 18 16 16 19 25 31 31 30 30 30 29 31 31 25 19 18 19 21 26 32 33 29 26 25 20 16 15 15 13 13 14 12 11 12
31 31 32 35 35 35 35 34 33 35 37 39 43 46 47 48 48 48 48 47 47 46 45 43 42 43 44 43 42 41 40 40 43 46 49 53 60 68 74 77 74 69 65 61 56 51 49 49 40 26 19 18 16 15 17 23 29 32 31 32 32 30 32 34 30 22 19 19 19 21 28 29 24 20 19 17 16 15 13 12 12 12 12 14 19
30 30 32 34 34 34 33 33 34 36 38 41 44 47 48 49 50 50 49 49 48 46 44 43 44 45 45 45 44 42 42 43 46 47 48 51 58 67 74 76 75 72 68 63 57 52 50 50 43 28 20 18 15 14 17 21 25 29 31 32 33 32 34 37 35 27 22 22 23 21 23 26 25 23 22 22 21 18 16 14 11 12 17 22 23
31 32 32 32 32 32 33 34 35 37 39 42 45 48 49 48 49 50 49 50 50 47 45 46 47 48 48 46 45 44 45 48 48 47 50 54 60 68 75 76 74 73 71 65 58 54 53 51 42 28 20 19 16 16 18 21 24 27 26 28 32 32 33 36 35 29 23 24 27 25 25 29 31 30 28 26 25 24 23 19 17 20 25 23 20
33 33 32 32 32 32 34 36 37 39 41 42 45 50 51 50 50 50 50 52 50 48 49 49 50 52 51 48 46 46 48 50 49 52 59 63 66 72 78 79 78 78 76 68 59 55 54 52 42 28 21 20 19 20 21 22 24 25 23 24 27 28 31 33 31 26 23 26 30 30 31 33 33 32 30 28 27 28 26 24 25 27 24 19 20
33 35 35 34 34 34 36 37 37 39 40 40 45 51 53 53 52 51 53 54 52 52 54 55 56 57 55 52 51 52 55 56 56 61 68 69 72 77 80 80 80 79 74 66 56 48 45 44 37 27 23 23 22 23 24 23 24 24 23 23 23 23 27 29 28 25 24 25 31 35 36 35 32 30 29 28 28 28 26 25 27 27 23 21 25
31 34 35 36 36 35 36 37 38 39 39 41 46 52 54 54 53 53 55 56 56 57 59 60 60 60 57 57 60 62 64 65 66 69 72 74 78 82 81 79 80 77 70 64 57 47 42 40 34 27 25 26 25 25 25 25 25 24 23 24 23 23 25 27 27 27 25 26 32 36 35 32 30 28 27 27 27 26 25 25 26 25 24 24 25
29 32 34 36 36 35 35 37 38 39 40 44 49 53 54 54 55 56 59 61 61 62 63 63 63 62 62 64 67 70 71 71 70 71 74 78 83 84 81 80 79 75 71 68 61 52 48 46 39 31 27 27 27 26 26 26 26 25 25 26 26 27 28 30 31 31 28 29 34 35 31 29 27 25 24 23 24 25 24 25 25 24 25 25 25
29 31 34 36 36 37 38 39 40 41 43 49 56 59 59 59 60 62 64 66 66 66 66 66 65 66 69 73 74 76 76 75 75 75 76 82 86 83 80 80 77 72 68 66 60 56 55 53 45 35 28 27 27 27 27 27 26 27 27 29 30 31 33 35 36 35 31 30 31 30 27 26 24 22 22 23 24 26 26 24 24 24 24 26 26
30 34 39 41 39 38 40 42 43 44 46 50 57 62 65 65 65 66 68 69 69 70 71 71 71 73 77 79 81 82 81 80 81 79 77 82 85 82 80 80 76 68 63 60 59 58 58 54 44 33 27 26 28 28 28 28 29 30 31 32 34 36 37 37 36 34 32 30 28 26 25 24 23 22 22 23 24 24 24 23 23 24 24 26 26
31 35 42 46 44 43 43 45 48 50 50 54 61 66 70 70 69 69 71 72 74 77 78 77 76 78 81 82 80 79 80 81 80 78 77 79 80 80 80 78 73 68 63 59 59 59 54 47 38 30 27 28 29 29 29 31 33 33 33 35 38 39 38 36 34 31 30 29 26 24 24 24 23 22 21 22 22 22 23 23 22 23 25 26 26
33 37 43 48 50 48 49 52 56 56 56 59 64 69 73 75 74 73 74 76 79 79 78 75 75 78 82 80 75 74 77 79 79 78 77 77 74 74 74 72 69 69 64 59 57 54 47 41 35 31 29 30 30 32 34 36 37 37 37 39 40 39 36 34 31 29 28 27 24 23 23 24 23 22 21 21 22 22 22 22 22 23 25 25 25
36 38 40 44 48 48 49 56 60 60 60 61 63 68 74 77 77 76 77 77 76 75 75 74 76 79 79 76 75 78 80 80 79 79 78 77 75 72 68 66 67 69 63 54 48 44 40 38 35 31 31 33 34 37 39 41 42 41 40 40 39 37 35 32 29 28 27 24 22 22 22 22 22 22 21 21 22 21 21 22 23 25 26 25 25
45 42 41 43 47 49 54 61 66 67 68 67 67 70 74 77 79 80 79 75 72 74 77 78 77 77 74 74 81 88 85 80 79 78 76 75 72 67 64 64 64 62 54 44 39 39 39 37 33 33 35 37 40 43 44 44 44 42 39 38 37 35 32 30 29 28 25 23 21 21 21 21 21 21 21 21 21 21 21 23 24 25 25 26 26
60 57 56 55 55 58 62 67 71 73 72 71 71 73 76 79 82 81 78 75 74 76 78 77 74 73 73 76 85 89 85 80 78 75 74 72 66 60 57 53 48 44 40 38 38 39 38 36 35 37 41 43 45 47 45 43 42 40 37 36 34 31 30 29 28 26 24 22 21 21 21 21 21 21 21 21 22 22 22 24 25 25 26 27 26
64 65 66 65 64 65 66 68 71 72 72 74 78 80 80 81 82 80 78 78 77 76 75 75 75 75 75 78 82 83 83 83 79 74 70 66 58 51 46 39 33 32 33 35 36 36 37 39 40 43 46 48 48 47 43 41 40 38 35 34 31 29 28 27 26 24 23 22 21 21 21 21 21 21 21 22 22 23 23 24 25 25 25 26 26
64 66 68 70 71 71 71 72 71 71 73 78 82 83 82 80 79 78 78 77 76 75 75 77 78 78 78 79 79 79 80 81 76 70 64 57 50 46 43 40 39 39 38 37 38 41 44 45 45 46 49 48 46 42 39 38 37 35 33 31 29 27 27 26 25 23 22 21 20 21 21 21 21 21 22 22 22 23 23 24 24 24 25 25 26
66 67 68 69 70 69 71 72 71 71 73 74 73 73 75 75 74 74 74 74 75 76 77 77 76 77 78 77 76 76 75 73 69 66 60 52 45 44 46 47 46 46 46 46 47 49 49 47 46 49 49 46 41 39 37 35 34 33 31 30 29 29 28 26 24 22 21 20 20 21 22 22 22 22 22 22 23 23 23 24 24 24 25 25 26
59 59 60 60 61 61 62 63 64 65 66 65 64 66 69 70 71 71 72 74 76 76 74 73 72 75 77 74 71 72 71 67 64 62 56 48 44 46 50 51 51 53 54 53 52 51 49 48 49 49 46 42 39 37 35 34 33 32 31 31 31 30 28 25 23 22 21 21 21 22 23 23 23 23 22 23 24 25 24 25 25 25 26 26 27
57 57 57 57 58 58 59 61 63 64 65 66 67 70 71 72 73 73 72 74 76 75 71 71 74 77 76 72 69 68 65 62 61 59 54 49 51 58 62 63 62 60 56 53 52 51 48 48 49 46 41 39 37 36 34 34 33 33 32 32 30 29 27 25 24 23 22 21 22 23 25 25 24 24 25 25 26 27 26 26 27 27 27 27 29
58 60 62 62 62 62 62 64 65 67 68 68 69 71 73 74 73 73 73 73 74 73 73 74 76 75 71 67 66 64 61 59 59 59 56 55 57 63 68 68 64 59 54 53 52 49 47 48 47 42 38 37 36 35 34 34 33 33 32 31 30 28 27 26 25 24 23 22 23 23 25 26 26 27 27 27 28 28 28 28 28 28 29 30 32
61 64 66 65 65 65 65 65 65 65 65 65 66 67 68 68 69 70 70 69 70 74 75 75 72 69 65 64 64 63 60 60 61 63 63 63 63 64 65 62 58 55 54 53 49 46 45 46 43 38 37 37 36 35 35 34 34 32 31 30 29 28 28 27 26 26 26 26 25 23 23 26 28 28 28 29 29 30 30 29 30 31 32 34 36
64 65 65 64 63 62 62 62 61 59 58 59 60 61 63 65 65 65 65 67 71 73 73 70 67 67 66 65 63 62 60 62 66 68 70 70 69 66 63 60 57 56 54 50 44 42 43 43 39 36 37 37 36 36 35 34 33 32 30 30 29 29 29 28 27 27 28 29 27 26 26 28 30 30 30 30 31 31 30 30 32 34 36 38 41
61 61 59 58 56 55 56 56 55 54 56 58 60 62 63 63 62 60 61 66 68 67 66 67 68 71 71 68 65 65 66 68 71 72 73 73 71 68 64 61 58 55 51 47 42 40 41 40 37 36 37 37 36 36 35 33 32 31 30 30 30 30 30 29 29 29 29 28 28 28 29 30 30 30 30 31 31 31 31 33 35 38 40 41 44
59 58 56 54 52 51 52 53 53 54 57 60 62 61 58 58 59 59 61 63 64 65 69 74 77 77 76 72 70 72 75 75 75 76 76 75 72 68 64 59 54 51 49 45 41 39 39 37 35 36 36 36 36 35 33 33 32 31 31 31 32 33 33 33 32 32 30 28 29 29 30 30 30 30 30 31 31 32 33 35 38 40 41 42 44
57 55 54 54 55 53 53 54 54 55 58 62 62 58 55 57 59 59 60 64 71 77 82 83 82 79 76 75 75 77 78 79 79 79 78 75 71 67 59 51 47 48 46 41 38 37 36 34 34 35 35 35 35 34 32 32 32 32 34 35 34 35 36 35 34 33 31 31 31 32 32 32 32 32 32 33 32 32 33 36 39 39 39 40 42
60 58 55 56 57 56 55 56 57 58 60 61 59 57 57 59 60 63 70 78 85 88 87 84 81 79 77 77 78 80 81 81 80 79 77 74 68 60 50 41 41 45 43 37 35 35 34 33 35 35 34 34 34 33 32 33 34 35 36 36 36 38 39 38 35 34 33 33 34 36 36 34 34 34 34 33 32 32 33 36 36 35 36 39 43
66 62 58 60 63 62 61 59 59 61 63 62 61 61 62 61 64 73 84 90 90 87 83 81 80 80 79 79 81 83 83 82 79 77 74 68 58 49 41 37 39 41 39 35 34 33 33 33 34 33 34 34 34 33 34 36 36 36 36 37 40 43 43 41 39 37 36 36 38 40 39 36 34 34 33 31 31 31 32 33 34 35 38 43 47
62 59 57 60 64 67 68 66 65 65 66 64 63 63 65 69 77 86 91 91 87 82 79 79 79 79 78 79 82 84 84 81 77 73 66 56 47 41 39 38 40 39 35 33 33 32 31 32 32 33 34 35 35 36 38 37 35 35 37 42 47 48 46 44 41 40 39 40 43 44 40 36 34 33 31 29 28 29 31 33 36 40 44 47 49
58 59 61 62 63 63 66 67 67 65 62 60 60 63 67 74 83 89 88 84 79 76 75 77 78 78 78 81 84 85 83 78 72 64 55 49 46 44 41 39 38 35 32 31 31 31 31 32 33 35 36 37 38 40 39 35 34 36 41 47 51 51 49 47 43 40 41 45 46 43 38 34 32 29 25 23 25 29 33 36 41 45 48 49 50
51 54 57 58 56 54 56 59 60 58 54 51 54 60 64 68 73 75 74 72 70 70 73 76 76 77 79 83 86 86 80 71 63 56 51 49 48 44 39 36 33 31 30 31 31 31 32 33 35 36 36 38 41 41 37 33 34 40 46 51 53 53 51 47 44 43 46 48 46 40 35 31 29 25 22 22 27 33 36 39 43 46 48 48 49
43 44 45 47 47 46 47 49 51 52 52 53 57 62 65 66 68 69 69 70 72 73 74 74 76 79 84 88 87 82 73 65 60 54 50 46 42 37 33 31 29 29 30 32 32 32 33 34 34 35 37 40 43 40 35 34 38 44 51 55 58 57 54 49 47 48 50 49 45 38 32 29 27 24 23 25 30 34 36 39 41 43 44 46 50
40 41 41 42 43 43 45 46 49 53 60 66 68 68 67 66 67 68 69 71 72 72 72 74 76 80 85 87 84 76 67 61 57 51 45 40 36 31 29 28 28 29 31 33 33 33 33 32 33 34 37 40 40 37 35 39 44 50 55 59 62 61 58 55 53 51 50 48 44 36 30 28 26 23 23 26 30 31 32 34 37 42 45 49 53
42 43 43 43 44 45 46 48 49 54 59 62 63 62 62 63 64 66 67 67 67 69 72 74 74 76 79 81 79 71 60 52 47 44 39 35 31 28 27 27 28 29 32 33 33 32 31 31 32 34 37 38 39 38 41 47 51 56 61 64 64 63 62 59 55 51 49 47 43 35 30 27 25 22 23 27 30 29 29 33 38 44 48 51 54
45 44 44 45 46 48 49 50 51 52 54 54 54 56 58 58 59 61 62 63 66 70 74 74 74 77 79 77 70 62 51 42 38 37 35 31 29 28 27 27 28 29 31 32 31 31 31 32 33 36 38 40 41 44 48 52 56 61 66 67 66 65 64 60 53 50 48 47 42 35 29 25 21 20 23 27 28 28 30 34 38 42 45 49 55
48 46 46 46 46 47 48 50 51 52 52 53 53 53 53 53 54 55 59 63 68 72 73 73 75 77 74 65 56 49 43 39 37 36 33 31 30 29 27 27 29 31 33 32 32 33 35 37 38 39 40 41 43 48 52 56 60 65 68 67 67 66 63 57 51 48 48 46 41 33 27 22 19 19 23 26 26 27 30 34 37 41 45 52 60
53 52 51 49 48 47 48 51 54 55 55 54 53 53 53 54 54 56 62 68 71 71 71 71 71 69 63 55 49 45 42 40 38 36 33 32 31 30 29 30 33 35 36 36 36 38 40 41 41 41 40 41 46 52 57 61 65 67 67 67 66 63 57 52 49 49 48 45 39 31 24 19 16 18 22 25 26 27 30 34 38 44 51 59 66
56 56 56 53 50 49 51 54 56 56 55 54 54 55 55 56 58 62 68 72 72 70 69 69 67 63 59 55 50 46 43 40 38 36 37 37 36 34 32 34 37 39 38 38 39 41 41 42 42 42 41 44 50 57 63 66 67 66 65 65 64 59 54 52 52 51 48 42 36 29 23 18 15 17 22 26 26 27 30 34 41 48 55 61 68
61 58 57 55 52 51 52 54 55 56 56 57 57 57 59 61 64 68 71 72 71 70 68 66 63 61 59 56 52 48 46 44 42 40 43 44 42 38 36 37 40 40 39 39 41 43 44 46 47 45 45 50 57 63 68 69 66 64 64 64 60 57 56 56 55 50 45 38 33 27 22 17 16 19 24 26 26 26 28 35 43 50 54 58 65
66 62 61 61 59 55 52 51 53 56 59 61 60 61 64 67 68 69 69 69 69 67 62 59 59 59 58 57 56 55 54 53 50 49 50 50 46 41 40 42 43 43 43 44 46 48 49 49 48 48 51 58 64 67 68 66 63 63 62 60 56 55 58 58 54 48 41 36 31 26 20 17 17 21 24 26 26 26 29 36 45 49 53 59 67
71 69 69 69 65 59 55 55 59 63 65 65 66 68 70 70 69 69 68 66 63 61 58 58 59 60 58 57 57 58 59 59 57 56 57 55 49 43 42 44 45 45 47 49 51 52 52 50 50 52 57 60 61 61 60 57 57 58 57 53 52 56 59 56 51 44 39 34 30 24 18 16 17 20 24 26 26 26 30 39 48 53 57 64 70